1st Responders/1st Detectors/Storm Spotters Weather Summary for Marion County, KY

Forecast Maps


Reg. NEXRAD Animation


National Fire Danger: Day 1 & 2 Map

Current NWS Watch/Warnings

SPC Convective Day 1 Outlook


Day 2 Outlook

(Click images to enlarge|Page will refresh every 5 minutes)
UK Ag. Weather Center Desktop Severe Weather Service[HERE]
Marion County, KY Hazardous Weather Outlook Webcast
(9 AM to 9 PM Mon-Fri)
[Fast]
[Dial-up]


UKAWC 1st Detectors/1st Responders Precision Weather Forecast For MARION County, Kentucky
(based on the NWS County Digital Forecast)

ISSUED AT 15:00 UTC ON FRIDAY JUN 22 2018
DAY FRIDAY
EDT 3HR NOON 1P 2P 3P 4P 5P 6P 7P
MAX/MIN -- -- -- -- -- -- -- 81°
TEMP 77° 76° 77° 79° 76° 76° 74° 74°
SKY COVER 55% 64% 60% 57% 63% 64% 58% 53%
Clouds
DEW PT 67° 67° 65° 65° 65° 67° 65° 65°
RH 68% 70% 66% 64% 69% 71% 75% 76%
POP 12HR -- -- -- -- -- -- -- --
RAIN/SNOW (liq.equ) -- -- 0.11in -- -- -- -- --
SNOWFALL -- -- 0in -- -- -- -- --
WIND SPEED(MPH) 7 8 9 9 10 9 8 7
WIND Gust(MPH) 10 13 14 15 15 15 13 8
WIND DIR S SW S SW SW SW SW SW
DEW -- Lgt Dew -- -- -- Lgt Dew Lgt Dew Lgt Dew
HeatIndex 77 76 77 79 76 76 74 74
Rain Showers Scattered Scattered Scattered Numerous Numerous Numerous Scattered Scattered
Thunder Storm Scattered Scattered Scattered Scattered Scattered Scattered Scattered Scattered
WIND CHILL -- -- -- -- -- -- -- --
SPRAY COND
DRY COND
LIVESTOCK HEATSTRESS 73.80 73.16 73.60 75.00 73.07 73.26 71.91 71.99



DAY SATURDAY SUNDAY MONDAY TUESDAY WEDNESDAY THURSDAY
EDT 6HR 8P 9P 10P 11P MIDN 1A 2A 3A 4A 5A 6A 7A 8A 9A 10A 11A NOON 1P 2P 3P 4P 5P 6P 7P 8P 9P 10P 11P 2A 5A 8A 11A 2P 5P 8P 2A 8A 2P 8P 2A 8A 2P 8P 2A 8A 2P 8P 2A 8A 2P 8P
MAX/MIN -- -- -- -- -- -- -- -- -- -- -- -- 65° -- -- -- -- -- -- -- -- -- -- 81° -- -- -- -- -- -- 67° -- -- 83° -- -- 67° 83° -- -- 65° 88° -- -- 70° 88° -- -- 70° 90° --
TEMP 72° 72° 70° 68° 67° 67° 67° 67° 67° 65° 67° 67° 67° 70° 72° 76° 77° 79° 79° 81° 81° 81° 81° 79° 76° 74° 72° 70° 68° 67° 68° 77° 81° 83° 77° 68° 68° 83° 81° 68° 68° 86° 83° 72° 72° 86° 83° 74° 74° 90° 83°
SKY COVER 51% 51% 67% 53% 57% 67% 64% 65% 67% 68% 71% 73% 76% 74% 69% 66% 66% 66% 66% 69% 75% 78% 77% 74% 73% 69% 61% 57% 67% 86% 83% 73% 72% 61% 67% 57% 54% 48% 25% 22% 30% 36% 28% 32% 39% 61% 54% 40% 38% 39% 54%
Clouds
DEW PT 65° 65° 65° 65° 65° 65° 65° 65° 65° 65° 65° 65° 65° 65° 67° 67° 67° 67° 67° 67° 67° 67° 67° 67° 67° 67° 67° 67° 67° 67° 67° 70° 70° 70° 70° 67° 67° 65° 67° 61° 63° 67° 67° 67° 67° 72° 70° 70° 70° 72° 72°
RH 78% 79% 84% 90% 93% 90% 93% 93% 93% 96% 93% 92% 93% 87% 81% 73% 68% 67% 64% 62% 62% 62% 64% 66% 73% 79% 87% 90% 93% 100% 97% 79% 69% 64% 76% 93% 93% 56% 62% 78% 84% 51% 59% 84% 86% 61% 67% 87% 87% 55% 69%
POP 12HR 64% -- -- -- -- -- -- -- -- -- -- -- 23% -- -- -- -- -- -- -- -- -- -- -- 30% -- -- -- -- -- 54% -- -- -- 54% -- 32% -- 2% -- 1% -- 0% -- 23% -- 48% -- 22% -- 19%
RAIN/SNOW (liq.equ) 0.31in -- -- -- -- -- 0.02in -- -- -- -- -- 0.01in -- -- -- -- -- 0.00in -- -- -- -- -- 0.02in -- -- -- 0.02in -- 0.26in -- 0.21in -- 0.11in -- -- -- -- -- -- -- -- -- -- -- -- -- -- -- --
SNOWFALL 0in -- -- -- -- -- 0in -- -- -- -- -- 0in -- -- -- -- -- 0in -- -- -- -- -- 0in -- -- -- 0in -- 0in -- 0in -- 0in -- -- -- -- -- -- -- -- -- -- -- -- -- -- -- --
WIND SPEED(MPH) 6 6 5 5 5 5 2 2 2 1 2 2 2 7 7 8 9 9 9 9 9 8 7 7 7 6 5 2 2 2 5 7 7 7 5 1 2 5 5 5 5 5 2 5 7 9 8 7 7 7 5
WIND DIR SW SW SW SW SW SW SW SW SW SW SW SW SW SW SW SW SW W W W W SW W W W W SW SW SW S SW SW SW W W NW NE NE NE E E S S S S SW SW SW SW SW SW
HeatIndex 72 72 70 68 67 67 67 67 67 65 67 67 67 70 72 76 77 79 82 83 85 85 83 82 76 74 72 70 68 67 68 77 86 87 77 68 68 85 83 68 68 89 87 72 72 93 87 74 74 97 88
Rain Showers Isolated Isolated Isolated -- -- -- -- -- -- -- -- -- Chance Chance Chance Chance Chance Chance Chance Chance Chance Chance Chance Chance Slight Chance Slight Chance Slight Chance Slight Chance Chance Chance Chance Chance Chance Chance Chance Slight Chance -- -- -- -- -- -- -- Slight Chance Chance Chance Slight Chance -- Slight Chance -- Chance
Thunder Storm Isolated Isolated Isolated -- -- -- -- -- -- -- -- -- Chance Chance Chance Chance Chance Chance Chance Chance Chance Chance Chance Chance Slight Chance Slight Chance Slight Chance Slight Chance Chance Chance Chance Chance Chance Chance Chance Slight Chance -- -- -- -- -- -- -- Slight Chance Chance Chance Slight Chance -- Slight Chance -- Chance
WIND CHILL -- -- -- -- -- -- -- -- -- -- -- -- -- -- -- -- -- -- -- -- -- -- -- -- -- -- -- -- -- -- -- -- -- -- -- -- -- -- -- -- -- -- -- -- -- -- -- -- -- -- --
SPRAY COND
DRY COND
LIVESTOCK HEATSTRESS 70.40 70.48 69.01 67.49 66.68 66.55 66.68 66.68 66.68 64.86 66.68 66.64 66.68 69.20 70.62 73.45 73.80 75.33 75.00 76.36 76.36 76.36 76.60 75.22 73.45 72.24 71.06 69.38 67.65 67.00 67.85 74.90 77.21 78.21 74.60 67.65 67.65 77.14 76.36 66.89 67.19 78.67 77.54 70.84 70.98 80.17 78.61 72.91 72.91 82.28 78.87

Click on individual weather variable above in left-hand column (ie., TEMP, RH, QPF 12HR) to view state forecast maps






NWS 48 Hr. Forecast Maps,

Regional Hourly Observations For MARION County, Kentucky
Issued at 1100 AM EDT FRI JUN 22 2018
SOUTHEAST KENTUCKY
  
CITY           SKY/WX    TMP DP  RH WIND       PRES   REMARKS
JACKSON        FAIR      76  68  76 VRB5      29.81S                  
LONDON         CLOUDY    77  68  73 S9        29.82S                  
SOMERSET       FAIR      75  64  69 SW9       29.82F                  
MIDDLESBORO    FAIR      79  67  67 SW7       29.83S                  
MONTICELLO     CLOUDY    78  69  73 SE8G17    29.82F                  


Current NOWCAST not available:
Nowcasts are not issued routinely during fair weather. Only when
precipitation or other significant weather is occuring in this county will these
forecasts be issued. Currently, there is no short term forecast in effect.


Fire Weather Forecast For MARION County, KY
Provided by the National Weather Service:

Issued at: Fri Jun 22 11:05:02 EDT 2018


                      Today        Tonight      Sat          

CLOUD COVER           MCldy        PCldy        PCldy        
PRECIP TYPE           tstms        tstms        tstms        
CHANCE PRECIP (%)     70           40           30           
TEMP (24H TREND)      82 (+3)      65 (-4)      84           
RH % (24H TREND)      63 (-8)      99 (+1)      58           
20FTWND-VAL/AM(MPH)   Lgt/Var                   SW  6        
20FTWND-RDG/PM(MPH)   SW  6        Lgt/Var      SW  8        
PRECIP AMOUNT         0.51         0.11         0.03         
MIXING HGT(FT-AGL/MSL)5636                      6225         
TRANSPORT WND (MPH)   S 20                      SW 18        
VENT RATE (KT-FT)     132100                    142742       
DISPERSION            Excellent                 Excellent    
DSI                   SLGT UNSTBL  SLGT UNSTBL  SLGT UNSTBL  
LAL                   4            4            3            
HAINES INDEX          3            3            2            
ADI EARLY             41 GEN GOOD  12 POOR      51 GEN GOOD  
ADI LATE              62 GOOD      5 VERY POOR  60 GEN GOOD  
MAX LVORI EARLY       6            6            6            
MAX LVORI LATE        3            7            1            

REMARKS...ADI IS ATMOSPHERIC DISPERSION INDEX BY LAVDAS.        
LVORI IS LOW VISIBILITY OCCURRENCE RISK INDEX.

.SUNDAY...Mostly cloudy with a 50 percent chance of showers and
thunderstorms. Lows in the upper 60s. Highs in the mid 80s. West
winds around 5 mph. 
.MONDAY...Mostly cloudy. A 50 percent chance of showers and
thunderstorms. Lows in the upper 60s. Highs in the mid 80s. Light
winds. 
.TUESDAY...Partly cloudy. Lows in the mid 60s. Highs in the upper
80s. South winds up to 5 mph. 
.WEDNESDAY...Partly cloudy. A 50 percent chance of showers and
thunderstorms. Lows around 70. Highs in the upper 80s. Southwest
winds 5 to 10 mph. 
.THURSDAY...Partly cloudy. Lows in the lower 70s. Highs around
90. Southwest winds 5 to 10 mph. 

SPC's Fire Weather Web Tool (Excellent!), SPC's Fire Weather Outlooks, NWS Fire Weather WEB, Fire Danger Class Map,
Keetch-Byram Drought Index, ROMAN Web, Haines Index ,
WFAS's 10-hr Dead Fuel Moist., WFAS's 100-hr Dead Fuel Moist., Probablity of Ignition, Visual blackness Map, Palmer Drought Index, HPC's Rainfall Forecast Maps


Hazardous Weather Outlook For MARION County, Kentucky
1108 AM EDT Fri Jun 22 2018 /1008 AM CDT Fri Jun 22 2018/

 DAY ONE  This Afternoon and Tonight.

Scattered to numerous thunderstorms are expected through early
evening as a low pressure system moves across the Ohio Valley. Brief
heavy rain, lightning, and strong wind gusts are expected with the 
stronger cells. An isolated severe storm with damaging winds is 
possible.

 DAYS TWO THROUGH SEVEN  Saturday through Thursday.

Another weather system should bring isolated thunderstorms to parts 
of central Kentucky Saturday afternoon and evening. Additional storms
are expected late Saturday night and Sunday, especially across 
south-central Kentucky with a few stronger cells possible.

Another slow-moving frontal boundary will impact the Midwest 
bringing a chance for storms to the region Wednesday afternoon.

 SPOTTER INFORMATION STATEMENT  

Spotters are encouraged to report any severe weather or flooding 
Friday and through the weekend to the National Weather Service.

Latest MARION County, Kentucky Watches, Warnings and Advisories.
Additional Drought Info.: UKAWC Drought Page, Kentucky Drought Watch


7-Day Forecast For MARION County, KY

REST OF TODAY
Partly cloudy. Scattered showers and thunderstorms late in the morning, then numerous showers and scattered thunderstorms in the afternoon. Highs around 80. South winds 5 to 15 mph. Chance of precipitation 70 percent.

TONIGHT
Partly cloudy with scattered thunderstorms and isolated showers. Lows in the mid 60s. Southwest winds 5 to 10 mph. Chance of precipitation 50 percent.

SATURDAY
Partly cloudy with a 30 percent chance of showers and thunderstorms. Highs in the lower 80s. Southwest winds 5 to 15 mph.

SATURDAY NIGHT
Partly cloudy with a 50 percent chance of showers and thunderstorms. Lows in the upper 60s. Southwest winds up to 5 mph.

SUNDAY
Mostly cloudy with a 50 percent chance of showers and thunderstorms. Highs in the lower 80s. Southwest winds 5 to 10 mph.

SUNDAY NIGHT
Partly cloudy with a 50 percent chance of showers and thunderstorms. Lows in the mid 60s.

MONDAY
Partly cloudy. Highs in the mid 80s.

MONDAY NIGHT
Mostly clear. Lows in the mid 60s.

TUESDAY
Partly cloudy. Highs in the upper 80s.

TUESDAY NIGHT
Partly cloudy with a 20 percent chance of showers and thunderstorms. Lows in the lower 70s.

WEDNESDAY
Partly cloudy with a 50 percent chance of showers and thunderstorms. Highs in the upper 80s.

WEDNESDAY NIGHT
Partly cloudy with a 20 percent chance of showers and thunderstorms. Lows in the lower 70s.

THURSDAY
Partly cloudy with a 20 percent chance of showers and thunderstorms. Highs in the lower 90s.

Ag Weather Center, Department of Biosystems & Agricultural Engineering, University of Kentucky